Total_Precipitation_Accumulation
0.62 0.60 0.49 0.35 0.35 0.29 0.64 0.45 0.41 0.33 0.22 0.20 0.17 0.11 0.09 0.09 0.13 0.19 0.18 0.19 0.15 0.11 0.09 0.08 0.08 0.07 0.11 0.16 0.17 0.16 0.15 0.12 0.09 0.06 0.05 0.05 0.04 0.04 0.06 0.07 0.07 0.05 0.02
0.50 0.68 0.61 0.51 0.43 0.42 0.36 0.68 0.60 0.46 0.41 0.25 0.22 0.19 0.12 0.09 0.10 0.14 0.15 0.15 0.16 0.12 0.09 0.10 0.08 0.07 0.09 0.07 0.11 0.17 0.16 0.12 0.11 0.07 0.05 0.04 0.01 0.00 0.00 0.00 0.00 0.00 0.00
0.18 0.45 0.67 0.60 0.51 0.47 0.44 0.46 0.79 0.67 0.46 0.47 0.34 0.36 0.27 0.15 0.12 0.10 0.11 0.12 0.14 0.11 0.10 0.09 0.08 0.09 0.09 0.09 0.06 0.05 0.06 0.11 0.16 0.15 0.09 0.09 0.07 0.02 0.00 0.00 0.00 0.00 0.00
0.05 0.10 0.27 0.58 0.62 0.46 0.45 0.43 0.46 0.79 0.62 0.48 0.52 0.46 0.48 0.32 0.18 0.13 0.13 0.15 0.14 0.12 0.09 0.08 0.08 0.11 0.11 0.12 0.12 0.08 0.07 0.07 0.07 0.10 0.12 0.10 0.07 0.03 0.02 0.01 0.00 0.00 0.00
0.02 0.03 0.05 0.11 0.42 0.52 0.40 0.43 0.37 0.38 0.77 0.59 0.54 0.52 0.56 0.63 0.43 0.29 0.14 0.13 0.17 0.17 0.14 0.12 0.12 0.16 0.17 0.16 0.17 0.16 0.14 0.14 0.12 0.10 0.08 0.06 0.06 0.05 0.03 0.01 0.01 0.00 0.00
0.00 0.01 0.01 0.01 0.05 0.23 0.34 0.41 0.40 0.35 0.34 0.68 0.52 0.56 0.51 0.56 0.78 0.58 0.32 0.14 0.14 0.17 0.18 0.15 0.16 0.26 0.18 0.18 0.19 0.19 0.18 0.15 0.14 0.12 0.10 0.09 0.05 0.02 0.02 0.04 0.04 0.04 0.02
0.00 0.00 0.00 0.00 0.00 0.03 0.10 0.21 0.40 0.42 0.35 0.32 0.56 0.51 0.52 0.40 0.56 0.66 0.58 0.31 0.18 0.17 0.14 0.17 0.21 0.17 0.26 0.20 0.23 0.25 0.26 0.25 0.19 0.15 0.12 0.08 0.06 0.06 0.07 0.09 0.07 0.04 0.02
0.00 0.00 0.00 0.00 0.00 0.00 0.02 0.06 0.16 0.31 0.41 0.32 0.32 0.48 0.55 0.42 0.46 0.58 0.69 0.61 0.38 0.15 0.17 0.16 0.18 0.19 0.22 0.28 0.28 0.33 0.30 0.26 0.23 0.23 0.17 0.12 0.13 0.13 0.15 0.17 0.17 0.18 0.18
0.00 0.00 0.00 0.00 0.00 0.00 0.00 0.02 0.05 0.14 0.19 0.33 0.26 0.31 0.47 0.52 0.42 0.51 0.61 0.70 0.81 0.45 0.18 0.25 0.22 0.21 0.32 0.36 0.35 0.41 0.35 0.28 0.28 0.31 0.30 0.29 0.32 0.35 0.35 0.31 0.29 0.20 0.20
0.00 0.00 0.00 0.00 0.00 0.00 0.00 0.00 0.02 0.06 0.10 0.14 0.22 0.22 0.37 0.42 0.49 0.47 0.55 0.61 0.74 0.97 0.54 0.28 0.43 0.24 0.28 0.31 0.31 0.32 0.35 0.23 0.15 0.22 0.27 0.27 0.29 0.31 0.37 0.26 0.23 0.27 0.27
0.01 0.00 0.00 0.00 0.00 0.00 0.00 0.00 0.01 0.03 0.04 0.07 0.09 0.13 0.27 0.39 0.41 0.48 0.53 0.58 0.60 0.72 1.03 0.53 0.34 0.40 0.25 0.24 0.24 0.18 0.21 0.24 0.33 0.30 0.31 0.28 0.25 0.23 0.23 0.21 0.18 0.20 0.23
0.01 0.01 0.00 0.00 0.00 0.00 0.00 0.00 0.00 0.01 0.02 0.03 0.06 0.08 0.15 0.27 0.36 0.39 0.43 0.52 0.64 0.57 0.69 0.90 0.62 0.49 0.37 0.28 0.17 0.16 0.21 0.21 0.21 0.22 0.25 0.26 0.24 0.20 0.15 0.18 0.22 0.26 0.22
0.02 0.01 0.00 0.00 0.00 0.00 0.01 0.01 0.00 0.00 0.01 0.02 0.06 0.09 0.11 0.13 0.25 0.33 0.32 0.36 0.41 0.50 0.55 0.69 0.87 0.80 0.51 0.40 0.25 0.16 0.10 0.08 0.10 0.13 0.13 0.13 0.16 0.19 0.22 0.24 0.24 0.23 0.23
0.05 0.02 0.00 0.01 0.01 0.00 0.00 0.00 0.00 0.00 0.00 0.02 0.04 0.06 0.08 0.07 0.10 0.21 0.25 0.27 0.27 0.29 0.41 0.49 0.56 0.54 0.49 0.35 0.30 0.20 0.12 0.06 0.06 0.05 0.07 0.10 0.14 0.16 0.16 0.18 0.21 0.19 0.21
0.03 0.02 0.01 0.01 0.01 0.00 0.00 0.00 0.00 0.00 0.01 0.02 0.04 0.05 0.05 0.03 0.08 0.16 0.14 0.25 0.23 0.21 0.20 0.25 0.34 0.32 0.29 0.27 0.21 0.18 0.21 0.21 0.18 0.12 0.12 0.15 0.17 0.16 0.19 0.23 0.24 0.25 0.25
0.08 0.02 0.03 0.03 0.01 0.00 0.00 0.00 0.00 0.00 0.01 0.03 0.03 0.06 0.07 0.09 0.10 0.05 0.06 0.11 0.20 0.20 0.15 0.14 0.20 0.25 0.29 0.25 0.24 0.34 0.41 0.41 0.32 0.32 0.33 0.28 0.23 0.21 0.21 0.23 0.22 0.22 0.23
0.13 0.07 0.04 0.03 0.02 0.01 0.01 0.01 0.01 0.00 0.01 0.01 0.04 0.05 0.07 0.04 0.03 0.03 0.04 0.07 0.09 0.14 0.09 0.12 0.17 0.23 0.25 0.24 0.28 0.34 0.36 0.34 0.37 0.40 0.37 0.34 0.31 0.33 0.42 0.31 0.29 0.28 0.25
0.10 0.08 0.09 0.05 0.03 0.02 0.03 0.03 0.04 0.04 0.02 0.01 0.00 0.00 0.01 0.02 0.02 0.03 0.05 0.05 0.05 0.06 0.05 0.05 0.07 0.09 0.12 0.15 0.19 0.21 0.21 0.25 0.26 0.25 0.25 0.26 0.29 0.29 0.28 0.28 0.25 0.21 0.20
0.14 0.13 0.09 0.05 0.05 0.04 0.04 0.07 0.09 0.10 0.06 0.02 0.01 0.01 0.01 0.03 0.04 0.07 0.08 0.03 0.02 0.05 0.08 0.09 0.08 0.08 0.08 0.07 0.08 0.09 0.11 0.11 0.11 0.13 0.16 0.18 0.18 0.17 0.19 0.19 0.20 0.21 0.18
0.13 0.15 0.11 0.08 0.07 0.05 0.05 0.06 0.06 0.05 0.03 0.03 0.03 0.04 0.03 0.05 0.06 0.07 0.10 0.10 0.10 0.13 0.13 0.10 0.10 0.07 0.05 0.04 0.05 0.06 0.09 0.08 0.09 0.09 0.10 0.11 0.13 0.13 0.13 0.15 0.14 0.14 0.15
0.17 0.15 0.13 0.10 0.13 0.12 0.08 0.07 0.07 0.06 0.05 0.06 0.07 0.12 0.13 0.11 0.18 0.26 0.25 0.17 0.19 0.20 0.15 0.10 0.09 0.07 0.06 0.05 0.06 0.08 0.08 0.08 0.08 0.07 0.06 0.07 0.07 0.07 0.08 0.08 0.08 0.09 0.07
0.18 0.16 0.12 0.12 0.09 0.10 0.10 0.10 0.10 0.08 0.08 0.10 0.11 0.13 0.14 0.25 0.31 0.32 0.20 0.13 0.14 0.13 0.09 0.08 0.09 0.09 0.08 0.07 0.06 0.07 0.08 0.08 0.07 0.06 0.06 0.06 0.05 0.05 0.05 0.05 0.05 0.05 0.04
0.17 0.16 0.15 0.16 0.18 0.17 0.13 0.10 0.08 0.08 0.12 0.12 0.14 0.15 0.17 0.23 0.24 0.21 0.14 0.11 0.10 0.10 0.11 0.10 0.10 0.11 0.12 0.11 0.09 0.07 0.07 0.06 0.06 0.04 0.04 0.04 0.04 0.04 0.04 0.04 0.04 0.04 0.03
0.13 0.15 0.16 0.15 0.16 0.11 0.12 0.11 0.12 0.13 0.13 0.15 0.16 0.16 0.18 0.19 0.17 0.15 0.13 0.13 0.12 0.13 0.12 0.13 0.14 0.14 0.13 0.12 0.11 0.10 0.09 0.07 0.06 0.05 0.04 0.03 0.04 0.04 0.03 0.03 0.03 0.03 0.02
0.11 0.11 0.12 0.14 0.14 0.14 0.13 0.12 0.13 0.14 0.15 0.16 0.17 0.17 0.18 0.16 0.14 0.14 0.15 0.16 0.13 0.11 0.13 0.14 0.15 0.15 0.14 0.13 0.12 0.11 0.10 0.08 0.06 0.04 0.03 0.02 0.02 0.02 0.02 0.02 0.02 0.01 0.01
0.10 0.10 0.13 0.12 0.12 0.14 0.14 0.15 0.16 0.17 0.18 0.20 0.19 0.18 0.17 0.16 0.16 0.14 0.13 0.11 0.09 0.09 0.09 0.08 0.09 0.08 0.07 0.08 0.09 0.08 0.06 0.04 0.03 0.02 0.01 0.01 0.01 0.01 0.01 0.01 0.01 0.00 0.00